Weather History for KAST - November, 2013

Change the Weather History Date:

Wednesday, November 20, 2013

  Actual Average Record
Temperature  
Mean Temperature 37 °F 46 °F  
Max Temperature 45 °F 52 °F 63 °F (1987)
Min Temperature 29 °F 39 °F 26 °F (2011)
Degree Days  
Heating Degree Days 28 19  
Month to date heating degree days 328 344  
Since 1 July heating degree days 1145 1211  
Cooling Degree Days 0 0  
Month to date cooling degree days 0 0  
Year to date cooling degree days 9 12  
Moisture  
Dew Point 28 °F    
Average Humidity 75    
Maximum Humidity 100    
Minimum Humidity 49    
Precipitation  
Precipitation 0.00 in 0.41 in 5.35 in (1904)
Month to date precipitation 4.77 7.16  
Year to date precipitation 53.87 53.38  
Snow  
Snow 0.00 in - - ()
Month to date snowfall 0.0  
Snow Depth 0.00 in    
Sea Level Pressure  
Sea Level Pressure 30.28 in    
Wind  
Wind Speed 9 mph (ENE)    
Max Wind Speed 17 mph    
Max Gust Speed 21 mph    
Visibility 10 miles    
Events      
T = Trace of Precipitation, MM = Missing Value Source: NWS Daily Summary

Daily Weather History Graph

Daily Weather History Graph

Search for Another Location

Airport or City:

Trip Planner

Search our weather history database for the weather conditions in past years. The results will help you decide how hot, cold, wet, or windy it might be!

Date:

Astronomy

Nov. 20, 2013 Rise Set
Actual Time 7:23 AM PST 4:38 PM PST
Civil Twilight 6:50 AM PST 5:11 PM PST
Nautical Twilight 6:14 AM PST 5:48 PM PST
Astronomical Twilight 5:38 AM PST 6:23 PM PST
Moon 7:26 PM PST (11/20) 9:53 AM PST (11/20)
Length of Visible Light 10h 20m
Length of Day
9h 14m
Waning Gibbous, 91% of the Moon is Illuminated
Nov 20
Waning Gibbous
Nov 25
Last Quarter
Dec 2
New
Dec 9
First Quarter
Dec 17
Full

Hourly Weather History & Observations

Time (PST) Temp. Windchill Dew Point Humidity Pressure Visibility Wind Dir Wind Speed Gust Speed Precip Events Conditions
12:55 AM 32.0 °F - 30.0 °F 92% 30.07 in 10.0 mi Calm Calm - N/A   Clear
1:55 AM 30.0 °F 25.2 °F 28.9 °F 96% 30.09 in 10.0 mi SE 4.6 mph - N/A   Clear
2:55 AM 28.9 °F 25.2 °F 28.9 °F 100% 30.12 in 10.0 mi ESE 3.5 mph - N/A   Clear
3:55 AM 30.0 °F 26.5 °F 28.9 °F 96% 30.14 in 10.0 mi ESE 3.5 mph - N/A   Clear
4:55 AM 28.9 °F 25.2 °F 27.0 °F 92% 30.17 in 10.0 mi SSE 3.5 mph - N/A   Clear
5:55 AM 30.9 °F - 28.9 °F 92% 30.19 in 10.0 mi Calm Calm - N/A   Clear
6:55 AM 34.0 °F 26.6 °F 30.0 °F 85% 30.22 in 10.0 mi ENE 9.2 mph - N/A   Clear
7:55 AM 36.0 °F 27.1 °F 28.9 °F 76% 30.24 in 10.0 mi NE 13.8 mph - N/A   Clear
8:55 AM 37.0 °F 31.6 °F 28.9 °F 73% 30.27 in 10.0 mi ESE 6.9 mph - N/A   Clear
9:55 AM 39.9 °F 35.8 °F 30.0 °F 68% 30.28 in 10.0 mi Variable 5.8 mph - N/A   Clear
10:55 AM 42.1 °F 35.2 °F 28.9 °F 60% 30.29 in 10.0 mi NE 12.7 mph - N/A   Clear
11:55 AM 43.0 °F 36.8 °F 28.0 °F 56% 30.29 in 10.0 mi NE 11.5 mph - N/A   Clear
12:55 PM 44.1 °F 39.0 °F 28.0 °F 53% 30.29 in 10.0 mi NE 9.2 mph - N/A   Clear
1:55 PM 45.0 °F 39.3 °F 27.0 °F 49% 30.30 in 10.0 mi North 11.5 mph - N/A   Clear
2:55 PM 45.0 °F 37.6 °F 26.1 °F 48% 30.30 in 10.0 mi NNE 17.3 mph - N/A   Clear
3:55 PM 44.1 °F 38.6 °F 27.0 °F 51% 30.33 in 10.0 mi NNE 10.4 mph - N/A   Clear
4:55 PM 42.1 °F 35.2 °F 28.9 °F 60% 30.34 in 10.0 mi NNE 12.7 mph - N/A   Clear
5:55 PM 41.0 °F 33.9 °F 28.9 °F 62% 30.35 in 10.0 mi NNE 12.7 mph - N/A   Clear
6:55 PM 39.9 °F 31.8 °F 28.0 °F 63% 30.37 in 10.0 mi NE 15.0 mph - N/A   Clear
7:55 PM 37.9 °F 31.5 °F 28.0 °F 68% 30.38 in 10.0 mi ENE 9.2 mph - N/A   Clear
8:55 PM 37.0 °F 33.3 °F 27.0 °F 67% 30.40 in 10.0 mi East 4.6 mph - N/A   Clear
9:55 PM 36.0 °F - 26.1 °F 67% 30.41 in 10.0 mi Calm Calm - N/A   Clear
10:55 PM 37.0 °F 28.9 °F 28.0 °F 70% 30.43 in 10.0 mi NE 12.7 mph - N/A   Clear
11:55 PM 37.9 °F 28.9 °F 27.0 °F 65% 30.44 in 10.0 mi NE 16.1 mph - N/A   Clear